When you browse on this site, cookies collect data to enhance your experience and personalize the content and advertising you see.
Visit our Privacy Policy to learn more. By continuing to use the site, you agree to this use of cookies and data.
  • In Germany
  • List of Countries
  • For 7 days
  • Water Temperature
  • Weather Map
  • Weather Widgets
  • user-avatar
    Login

    Hourly Weather Asadabad

    Today, 19 November, Tuesday

    Time Temperature Precipitation Wind Pressure Humidity
    00:00 +10°C° 0 mm 3 mps 658 mmHg 29%
    01:00 +10°C° 0 mm 3 mps 658 mmHg 29%
    02:00 +10°C° 0 mm 3 mps 657 mmHg 28%
    03:00 +10°C° 0 mm 3 mps 657 mmHg 28%
    04:00 +9°C° 0 mm 3 mps 656 mmHg 28%
    05:00 +9°C° 0 mm 3 mps 656 mmHg 27%
    06:00 +9°C° 0 mm 3 mps 657 mmHg 28%
    07:00 +10°C° 0 mm 3 mps 657 mmHg 28%
    08:00 +10°C° 0 mm 3 mps 658 mmHg 29%
    09:00 +12°C° 0 mm 3 mps 658 mmHg 26%
    10:00 +15°C° 0 mm 2 mps 659 mmHg 22%
    11:00 +18°C° 0 mm 1 mps 659 mmHg 19%
    12:00 +19°C° 0 mm 1 mps 659 mmHg 19%
    13:00 +19°C° 0 mm 1 mps 659 mmHg 18%
    14:00 +19°C° 0 mm 1 mps 658 mmHg 17%
    15:00 +18°C° 0 mm 1 mps 658 mmHg 24%
    16:00 +15°C° 0 mm 0 mps 658 mmHg 31%
    17:00 +14°C° 0 mm 0 mps 657 mmHg 37%
    18:00 +14°C° 0 mm 1 mps 657 mmHg 37%
    19:00 +13°C° 0 mm 1 mps 657 mmHg 37%
    20:00 +13°C° 0 mm 1 mps 657 mmHg 37%
    21:00 +12°C° 0 mm 1 mps 657 mmHg 37%
    22:00 +12°C° 0 mm 2 mps 657 mmHg 36%
    23:00 +12°C° 0 mm 2 mps 657 mmHg 36%

    Tomorrow, 20 November, Wednesday

    Time Temperature Precipitation Wind Pressure Humidity
    00:00 +10°C° 0 mm 2 mps 657 mmHg 35%
    01:00 +10°C° 0 mm 2 mps 657 mmHg 34%
    02:00 +10°C° 0 mm 3 mps 657 mmHg 33%
    03:00 +9°C° 0 mm 3 mps 657 mmHg 32%
    04:00 +9°C° 0 mm 3 mps 657 mmHg 31%
    05:00 +9°C° 0 mm 3 mps 656 mmHg 30%
    06:00 +10°C° 0 mm 3 mps 657 mmHg 30%
    07:00 +10°C° 0 mm 3 mps 657 mmHg 31%
    08:00 +11°C° 0 mm 3 mps 658 mmHg 31%
    09:00 +14°C° 0 mm 2 mps 658 mmHg 27%
    10:00 +16°C° 0 mm 2 mps 659 mmHg 23%
    11:00 +19°C° 0 mm 1 mps 659 mmHg 19%
    12:00 +19°C° 0 mm 1 mps 659 mmHg 18%
    13:00 +19°C° 0 mm 1 mps 659 mmHg 18%
    14:00 +20°C° 0 mm 1 mps 658 mmHg 18%
    15:00 +18°C° 0 mm 1 mps 658 mmHg 24%
    16:00 +16°C° 0 mm 1 mps 658 mmHg 30%
    17:00 +15°C° 0 mm 1 mps 657 mmHg 35%
    18:00 +13°C° 0 mm 0 mps 658 mmHg 37%
    19:00 +13°C° 0 mm 0 mps 658 mmHg 39%
    20:00 +12°C° 0 mm 0 mps 659 mmHg 40%
    21:00 +12°C° 0 mm 0 mps 659 mmHg 39%
    22:00 +14°C° 0 mm 1 mps 660 mmHg 38%
    23:00 +14°C° 0 mm 1 mps 660 mmHg 37%

    Day after tomorrow, 21 November, Thursday

    Time Temperature Precipitation Wind Pressure Humidity
    00:00 +13°C° 0 mm 1 mps 660 mmHg 44%
    01:00 +12°C° 0 mm 2 mps 660 mmHg 51%
    02:00 +10°C° 0 mm 2 mps 660 mmHg 57%
    03:00 +10°C° 0 mm 2 mps 660 mmHg 59%
    04:00 +10°C° 0 mm 2 mps 659 mmHg 60%
    05:00 +9°C° 0 mm 2 mps 659 mmHg 61%
    06:00 +9°C° 0 mm 2 mps 660 mmHg 60%
    07:00 +10°C° 0 mm 2 mps 660 mmHg 58%
    08:00 +10°C° 0 mm 2 mps 660 mmHg 56%
    09:00 +12°C° 0 mm 2 mps 660 mmHg 52%
    10:00 +13°C° 0 mm 1 mps 660 mmHg 48%
    11:00 +14°C° 0 mm 1 mps 660 mmHg 44%
    12:00 +14°C° 0.1 mm 2 mps 660 mmHg 47%
    13:00 +14°C° 0.1 mm 2 mps 660 mmHg 49%
    14:00 +14°C° 0.1 mm 2 mps 659 mmHg 52%
    15:00 +13°C° 0.5 mm 2 mps 659 mmHg 62%
    16:00 +12°C° 0.5 mm 2 mps 659 mmHg 71%
    17:00 +9°C° 0.5 mm 2 mps 659 mmHg 81%
    18:00 +9°C° 0.7 mm 2 mps 659 mmHg 82%
    19:00 +9°C° 0.7 mm 2 mps 659 mmHg 83%
    20:00 +9°C° 0.7 mm 2 mps 660 mmHg 85%
    21:00 +9°C° 0.1 mm 2 mps 660 mmHg 84%
    22:00 +9°C° 0.1 mm 2 mps 660 mmHg 82%
    23:00 +9°C° 0.1 mm 2 mps 660 mmHg 81%

    22 November, Friday

    Time Temperature Precipitation Wind Pressure Humidity
    00:00 +9°C° 0.1 mm 2 mps 660 mmHg 81%
    01:00 +9°C° 0.1 mm 2 mps 660 mmHg 80%
    02:00 +9°C° 0.1 mm 2 mps 659 mmHg 79%
    03:00 +9°C° 0.3 mm 2 mps 659 mmHg 81%
    04:00 +9°C° 0.3 mm 2 mps 659 mmHg 83%
    05:00 +9°C° 0.3 mm 2 mps 658 mmHg 85%
    06:00 +10°C° 0.4 mm 1 mps 659 mmHg 86%
    07:00 +10°C° 0.4 mm 1 mps 659 mmHg 87%
    08:00 +10°C° 0.4 mm 1 mps 659 mmHg 88%
    09:00 +10°C° 0.3 mm 1 mps 659 mmHg 88%
    10:00 +10°C° 0.3 mm 1 mps 659 mmHg 88%
    11:00 +10°C° 0.3 mm 1 mps 659 mmHg 87%
    12:00 +10°C° 0.2 mm 1 mps 659 mmHg 87%
    13:00 +10°C° 0.2 mm 1 mps 659 mmHg 86%
    14:00 +10°C° 0.2 mm 1 mps 658 mmHg 86%
    15:00 +10°C° 0.2 mm 1 mps 658 mmHg 87%
    16:00 +9°C° 0.2 mm 0 mps 658 mmHg 88%
    17:00 +9°C° 0.2 mm 0 mps 658 mmHg 89%
    18:00 +9°C° 0.2 mm 0 mps 658 mmHg 88%
    19:00 +9°C° 0.2 mm 0 mps 659 mmHg 88%
    20:00 +9°C° 0.2 mm 0 mps 659 mmHg 88%
    21:00 +9°C° 0.1 mm 0 mps 659 mmHg 87%
    22:00 +10°C° 0.1 mm 1 mps 659 mmHg 87%
    23:00 +10°C° 0.1 mm 1 mps 659 mmHg 86%

    23 November, Saturday

    Time Temperature Precipitation Wind Pressure Humidity
    00:00 +10°C° 0 mm 1 mps 659 mmHg 84%
    01:00 +9°C° 0 mm 1 mps 659 mmHg 82%
    02:00 +9°C° 0 mm 1 mps 659 mmHg 80%
    03:00 +9°C° 0 mm 1 mps 659 mmHg 78%
    04:00 +8°C° 0 mm 1 mps 659 mmHg 75%
    05:00 +8°C° 0 mm 1 mps 658 mmHg 73%
    06:00 +9°C° 0 mm 1 mps 659 mmHg 69%
    07:00 +9°C° 0 mm 1 mps 659 mmHg 65%
    08:00 +9°C° 0 mm 2 mps 660 mmHg 61%
    09:00 +11°C° 0 mm 1 mps 660 mmHg 56%
    10:00 +12°C° 0 mm 1 mps 660 mmHg 51%
    11:00 +14°C° 0 mm 1 mps 660 mmHg 47%
    12:00 +14°C° 0 mm 1 mps 660 mmHg 47%
    13:00 +14°C° 0 mm 1 mps 660 mmHg 48%
    14:00 +15°C° 0 mm 1 mps 659 mmHg 48%
    15:00 +14°C° 0 mm 1 mps 659 mmHg 54%
    16:00 +13°C° 0 mm 1 mps 659 mmHg 59%
    17:00 +12°C° 0 mm 1 mps 659 mmHg 65%
    18:00 +11°C° 0 mm 1 mps 659 mmHg 66%
    19:00 +11°C° 0 mm 1 mps 660 mmHg 67%
    20:00 +10°C° 0 mm 1 mps 660 mmHg 68%
    21:00 +10°C° 0 mm 1 mps 660 mmHg 65%
    22:00 +9°C° 0 mm 2 mps 660 mmHg 62%
    23:00 +9°C° 0 mm 2 mps 660 mmHg 59%

    24 November, Sunday

    Time Temperature Precipitation Wind Pressure Humidity
    00:00 +9°C° 0 mm 2 mps 660 mmHg 58%
    01:00 +9°C° 0 mm 2 mps 659 mmHg 56%
    02:00 +9°C° 0 mm 2 mps 659 mmHg 55%
    03:00 +9°C° 0 mm 2 mps 659 mmHg 54%
    04:00 +9°C° 0 mm 2 mps 659 mmHg 54%
    05:00 +9°C° 0 mm 2 mps 658 mmHg 54%
    06:00 +9°C° 0 mm 2 mps 659 mmHg 54%
    07:00 +9°C° 0 mm 2 mps 659 mmHg 54%
    08:00 +10°C° 0 mm 2 mps 659 mmHg 55%
    09:00 +12°C° 0 mm 2 mps 659 mmHg 50%
    10:00 +13°C° 0 mm 1 mps 660 mmHg 46%
    11:00 +15°C° 0 mm 1 mps 660 mmHg 41%
    12:00 +15°C° 0 mm 1 mps 659 mmHg 41%
    13:00 +15°C° 0 mm 1 mps 659 mmHg 41%
    14:00 +16°C° 0 mm 1 mps 659 mmHg 41%
    15:00 +15°C° 0 mm 1 mps 658 mmHg 46%
    16:00 +14°C° 0 mm 1 mps 658 mmHg 51%
    17:00 +13°C° 0 mm 1 mps 658 mmHg 57%
    18:00 +12°C° 0 mm 1 mps 658 mmHg 58%
    19:00 +11°C° 0 mm 1 mps 658 mmHg 60%
    20:00 +11°C° 0 mm 1 mps 658 mmHg 61%
    21:00 +11°C° 0 mm 1 mps 659 mmHg 60%
    22:00 +11°C° 0 mm 1 mps 659 mmHg 58%
    23:00 +9°C° 0 mm 2 mps 659 mmHg 57%
    Show more